Retour au catalogue

FENGYUN 1C DEB

ActifSSO
NORAD 33747·DEBRIS·🇨🇳 China

Lancé May 10, 1999 depuis Taiyuan Satellite Launch Center

Loading…

Prochains Passages (prochaines 24 heures)

TLE

FraisSource: Space-Track

Époque: Sep 11, 2026, 17:52 UTC

1 33747U 99025DJL 26254.74467705  .00003076  00000-0  14260-2 0  9999
2 33747  99.0968   1.2847 0088712 163.2178 197.1965 14.19440747940038

Suivez FENGYUN 1C DEB en temps réel avec AllMySat

Download on the App Store